Weather History for KOSA - March, 2013

Change the Weather History Date:

Friday, March 8, 2013

  Actual Average (KGGG) Record (KGGG)
Temperature  
Mean Temperature 55 °F 56 °F  
Max Temperature 68 °F 67 °F 88 °F (1911)
Min Temperature 42 °F 45 °F 20 °F (1932)
Degree Days  
Heating Degree Days 10 10  
Month to date heating degree days 86  
Since 1 July heating degree days 1990  
Cooling Degree Days 0 1  
Month to date cooling degree days 8  
Year to date cooling degree days 20  
Growing Degree Days 5 (Base 50)    
Moisture  
Dew Point 36 °F    
Average Humidity 50    
Maximum Humidity 81    
Minimum Humidity 28    
Precipitation  
Precipitation 0.00 in 0.14 in 1.61 in (1927)
Month to date precipitation 1.12  
Year to date precipitation 8.48  
Snow  
Snow 0.00 in - - ()
Month to date snowfall  
Since 1 July snowfall  
Snow Depth -    
Sea Level Pressure  
Sea Level Pressure 30.18 in    
Wind  
Wind Speed 7 mph (ESE)    
Max Wind Speed 14 mph    
Max Gust Speed 18 mph    
Visibility 10 miles    
Events      
T = Trace of Precipitation, MM = Missing Value Source: NWS Daily Summary

Daily Weather History Graph

Daily Weather History Graph

Search for Another Location

Airport or City:

Trip Planner

Search our weather history database for the weather conditions in past years. The results will help you decide how hot, cold, wet, or windy it might be!

Date:

Astronomy

Mar. 08, 2013 Rise Set
Actual Time 6:38 AM CST 6:22 PM CST
Civil Twilight 6:14 AM CST 6:47 PM CST
Nautical Twilight 5:45 AM CST 7:16 PM CST
Astronomical Twilight 5:16 AM CST 7:44 PM CST
Moon 4:15 AM CST (3/8) 3:26 PM CST (3/8)
Length of Visible Light 12h 33m
Length of Day
11h 43m
Waning Crescent, 11% of the Moon is Illuminated
Mar 8
Waning Crescent
Mar 11
New
Mar 19
First Quarter
Mar 27
Full
Apr 2
Last Quarter

Hourly Weather History & Observations

Time (CST) Temp. Windchill Dew Point Humidity Pressure Visibility Wind Dir Wind Speed Gust Speed Precip Events Conditions
12:15 AM 50.0 °F - 33.8 °F 54% 30.21 in 10.0 mi ESE 4.6 mph - N/A   Clear
12:35 AM 50.0 °F - 33.8 °F 54% 30.21 in 10.0 mi ESE 5.8 mph - N/A   Clear
12:55 AM 46.4 °F 43.5 °F 33.8 °F 62% 30.21 in 10.0 mi SE 5.8 mph - N/A   Clear
1:15 AM 46.4 °F 42.9 °F 35.6 °F 66% 30.20 in 10.0 mi ESE 6.9 mph - N/A   Clear
1:35 AM 48.2 °F - 33.8 °F 58% 30.21 in 10.0 mi ESE 5.8 mph - N/A   Clear
1:55 AM 48.2 °F - 33.8 °F 58% 30.21 in 10.0 mi ESE 5.8 mph - N/A   Clear
2:15 AM 46.4 °F 42.9 °F 35.6 °F 66% 30.20 in 10.0 mi ESE 6.9 mph - N/A   Clear
2:35 AM 44.6 °F 41.4 °F 33.8 °F 66% 30.20 in 10.0 mi East 5.8 mph - N/A   Clear
2:55 AM 44.6 °F 42.2 °F 35.6 °F 71% 30.20 in 10.0 mi ESE 4.6 mph - N/A   Clear
3:15 AM 44.6 °F 42.2 °F 35.6 °F 71% 30.20 in 10.0 mi ESE 4.6 mph - N/A   Clear
3:35 AM 44.6 °F 43.1 °F 35.6 °F 71% 30.20 in 10.0 mi ESE 3.5 mph - N/A   Clear
3:55 AM 44.6 °F 43.1 °F 35.6 °F 71% 30.20 in 10.0 mi ESE 3.5 mph - N/A   Clear
4:15 AM 44.6 °F - 35.6 °F 71% 30.21 in 10.0 mi Calm Calm - N/A   Clear
4:35 AM 44.6 °F 43.1 °F 35.6 °F 71% 30.20 in 10.0 mi East 3.5 mph - N/A   Clear
4:55 AM 44.6 °F - 35.6 °F 71% 30.21 in 10.0 mi Calm Calm - N/A   Clear
5:15 AM 44.6 °F 43.1 °F 35.6 °F 71% 30.23 in 10.0 mi East 3.5 mph - N/A   Clear
5:35 AM 44.6 °F 43.1 °F 35.6 °F 71% 30.22 in 10.0 mi East 3.5 mph - N/A   Clear
5:55 AM 42.8 °F 40.1 °F 35.6 °F 76% 30.23 in 10.0 mi ENE 4.6 mph - N/A   Clear
6:15 AM 42.8 °F 41.1 °F 35.6 °F 76% 30.23 in 10.0 mi ENE 3.5 mph - N/A   Clear
6:35 AM 42.8 °F 39.3 °F 35.6 °F 76% 30.24 in 10.0 mi NE 5.8 mph - N/A   Clear
6:55 AM 42.8 °F 39.3 °F 37.4 °F 81% 30.24 in 10.0 mi NE 5.8 mph - N/A   Clear
7:15 AM 42.8 °F 39.3 °F 37.4 °F 81% 30.24 in 10.0 mi NE 5.8 mph - N/A   Clear
7:35 AM 44.6 °F 43.1 °F 37.4 °F 76% 30.25 in 10.0 mi ENE 3.5 mph - N/A   Clear
7:55 AM 46.4 °F 42.9 °F 39.2 °F 76% 30.25 in 10.0 mi East 6.9 mph - N/A   Clear
8:15 AM 50.0 °F - 39.2 °F 66% 30.26 in 10.0 mi East 4.6 mph - N/A   Clear
8:35 AM 50.0 °F - 39.2 °F 66% 30.26 in 10.0 mi ESE 5.8 mph - N/A   Clear
8:55 AM 51.8 °F - 39.2 °F 62% 30.27 in 10.0 mi ESE 6.9 mph - N/A   Scattered Clouds
9:15 AM 53.6 °F - 39.2 °F 58% 30.27 in 10.0 mi ESE 9.2 mph - N/A   Scattered Clouds
9:35 AM 53.6 °F - 37.4 °F 54% 30.27 in 10.0 mi ESE 10.4 mph - N/A   Scattered Clouds
9:55 AM 55.4 °F - 39.2 °F 54% 30.27 in 10.0 mi East 9.2 mph - N/A   Scattered Clouds
10:15 AM 55.4 °F - 37.4 °F 51% 30.28 in 10.0 mi SE 8.1 mph - N/A   Scattered Clouds
10:35 AM 55.4 °F - 39.2 °F 54% 30.28 in 10.0 mi SE 10.4 mph - N/A   Mostly Cloudy
10:55 AM 57.2 °F - 39.2 °F 51% 30.28 in 10.0 mi ESE 8.1 mph - N/A   Overcast
11:15 AM 59.0 °F - 37.4 °F 45% 30.27 in 10.0 mi ESE 10.4 mph - N/A   Mostly Cloudy
11:35 AM 60.8 °F - 37.4 °F 42% 30.26 in 10.0 mi East 11.5 mph - N/A   Scattered Clouds
11:55 AM 60.8 °F - 37.4 °F 42% 30.25 in 10.0 mi ESE 13.8 mph - N/A   Scattered Clouds
12:15 PM 62.6 °F - 37.4 °F 39% 30.23 in 10.0 mi ESE 11.5 mph - N/A   Scattered Clouds
12:35 PM 62.6 °F - 37.4 °F 39% 30.22 in 10.0 mi ESE 10.4 mph - N/A   Clear
12:55 PM 64.4 °F - 33.8 °F 32% 30.21 in 10.0 mi ESE 11.5 mph 16.1 mph N/A   Scattered Clouds
1:15 PM 66.2 °F - 33.8 °F 30% 30.19 in 10.0 mi SE 10.4 mph 16.1 mph N/A   Mostly Cloudy
1:35 PM 66.2 °F - 33.8 °F 30% 30.18 in 10.0 mi East 10.4 mph 18.4 mph N/A   Scattered Clouds
1:55 PM 68.0 °F - 33.8 °F 28% 30.16 in 10.0 mi SE 10.4 mph 18.4 mph N/A   Scattered Clouds
2:15 PM 68.0 °F - 35.6 °F 30% 30.15 in 10.0 mi SE 9.2 mph - N/A   Scattered Clouds
2:35 PM 68.0 °F - 35.6 °F 30% 30.15 in 10.0 mi East 10.4 mph 17.3 mph N/A   Clear
2:55 PM 68.0 °F - 35.6 °F 30% 30.14 in 10.0 mi East 10.4 mph - N/A   Clear
3:15 PM 68.0 °F - 35.6 °F 30% 30.13 in 10.0 mi SE 11.5 mph - N/A   Clear
3:35 PM 68.0 °F - 35.6 °F 30% 30.12 in 10.0 mi ESE 10.4 mph 16.1 mph N/A   Clear
3:55 PM 68.0 °F - 35.6 °F 30% 30.12 in 10.0 mi ESE 10.4 mph 16.1 mph N/A   Scattered Clouds
4:15 PM 66.2 °F - 35.6 °F 32% 30.11 in 10.0 mi East 10.4 mph - N/A   Scattered Clouds
4:35 PM 66.2 °F - 35.6 °F 32% 30.12 in 10.0 mi ESE 6.9 mph - N/A   Scattered Clouds
4:55 PM 66.2 °F - 37.4 °F 35% 30.12 in 10.0 mi ESE 6.9 mph - N/A   Mostly Cloudy
5:15 PM 66.2 °F - 37.4 °F 35% 30.11 in 10.0 mi ESE 9.2 mph - N/A   Mostly Cloudy
5:35 PM 64.4 °F - 35.6 °F 34% 30.12 in 10.0 mi ESE 9.2 mph - N/A   Mostly Cloudy
5:55 PM 64.4 °F - 35.6 °F 34% 30.12 in 10.0 mi ESE 6.9 mph - N/A   Mostly Cloudy
6:15 PM 64.4 °F - 35.6 °F 34% 30.12 in 10.0 mi ESE 6.9 mph - N/A   Overcast
6:35 PM 64.4 °F - 35.6 °F 34% 30.11 in 10.0 mi East 9.2 mph - N/A   Mostly Cloudy
6:55 PM 64.4 °F - 35.6 °F 34% 30.10 in 10.0 mi East 11.5 mph - N/A   Mostly Cloudy
7:15 PM 62.6 °F - 37.4 °F 39% 30.10 in 10.0 mi ESE 10.4 mph - N/A   Scattered Clouds
7:35 PM 62.6 °F - 37.4 °F 39% 30.10 in 10.0 mi ESE 9.2 mph - N/A   Clear
7:55 PM 62.6 °F - 35.6 °F 37% 30.11 in 10.0 mi ESE 9.2 mph - N/A   Scattered Clouds
8:15 PM 62.6 °F - 37.4 °F 39% 30.11 in 10.0 mi ESE 8.1 mph - N/A   Mostly Cloudy
8:35 PM 62.6 °F - 37.4 °F 39% 30.11 in 10.0 mi ESE 9.2 mph - N/A   Mostly Cloudy
8:55 PM 62.6 °F - 37.4 °F 39% 30.10 in 10.0 mi ESE 9.2 mph - N/A   Mostly Cloudy
9:15 PM 62.6 °F - 35.6 °F 37% 30.11 in 10.0 mi ESE 6.9 mph - N/A   Mostly Cloudy
9:35 PM 62.6 °F - 37.4 °F 39% 30.12 in 10.0 mi SE 4.6 mph - N/A   Mostly Cloudy
9:55 PM 60.8 °F - 37.4 °F 42% 30.11 in 10.0 mi SE 6.9 mph - N/A   Mostly Cloudy
10:15 PM 62.6 °F - 37.4 °F 39% 30.11 in 10.0 mi SE 8.1 mph - N/A   Mostly Cloudy
10:35 PM 62.6 °F - 37.4 °F 39% 30.11 in 10.0 mi ESE 9.2 mph - N/A   Mostly Cloudy
10:55 PM 60.8 °F - 37.4 °F 42% 30.10 in 10.0 mi ESE 8.1 mph - N/A   Scattered Clouds
11:15 PM 62.6 °F - 37.4 °F 39% 30.09 in 10.0 mi SE 9.2 mph - N/A   Mostly Cloudy
11:35 PM 60.8 °F - 39.2 °F 45% 30.08 in 10.0 mi ESE 8.1 mph - N/A   Scattered Clouds
11:55 PM 59.0 °F - 39.2 °F 48% 30.08 in 10.0 mi ESE 9.2 mph - N/A   Scattered Clouds